Regional Weather Roundup
Issued by NWS State College, PA

Home | Current Version | Previous Version | Graphics & Text | Print | Product List | Glossary On
Versions: 1 2 3 4 5 6 7 8 9 10 11 12 13 14 15 16 17 18 19 20 21 22 23 24 25 26 27 28 29 30 31 32 33 34 35 36 37 38 39 40 41 42 43 44 45 46 47 48 49 50
000
ASUS41 KCTP 170810
RWRCTP

REGIONAL WEATHER ROUNDUP
NATIONAL WEATHER SERVICE STATE COLLEGE PA
400 AM EDT WED SEP 17 2014

Note: "fair" indicates few or no clouds below 12,000 feet with no
significant weather and/or obstructions to visibility.

* = STATION THAT DOES NOT REPORT PRECIPITATION /E.G. RAIN...SNOW...ETC/
    THUNDER OR FOG.

PAZ002>004-007>009-013>016-020>023-029>032-170900-
WESTERN PENNSYLVANIA

CITY           SKY/WX    TMP DP  RH WIND       PRES   REMARKS
ERIE           CLOUDY    51  46  83 S6        30.06F
MEADVILLE      CLEAR     48  45  89 S3        30.07F
FRANKLIN*      CLEAR     45  43  93 CALM      30.09F
NEW CASTLE     PTSUNNY   46  46 100 CALM      30.09F FOG
BEAVER COUNTY  NOT AVBL
BUTLER*        MOCLDY    48  46  93 CALM      30.10S
PITTSBURGH INT CLOUDY    53  50  89 CALM      30.08S
PITTSBURGH     PTCLDY    52  46  80 N3        30.06F
INDIANA*       CLOUDY    48  48 100 CALM      30.11F
LATROBE        FOG       46  46 100 CALM      30.08F VSB 1
WASHINGTON CO* CLOUDY    43  41  93 CALM      30.08S VSB 1/4
$$

PAZ004>006-010>012-017>019-024>028-033>037-041-042-045-046-049>053-170900-
CENTRAL PENNSYLVANIA

CITY           SKY/WX    TMP DP  RH WIND       PRES   REMARKS
BRADFORD       MOCLDY    38  35  89 CALM      30.07F
DUBOIS         CLOUDY    48  46  93 CALM      30.07F
CLEARFIELD     CLOUDY    48  47  96 CALM      30.09S
JOHNSTOWN      MOCLDY    47  45  93 CALM      30.08S
ALTOONA        MOCLDY    45  44  97 CALM      30.08F
STATE COLLEGE  CLOUDY    50  48  92 CALM      30.08S
WILLIAMSPORT   CLOUDY    49  46  90 NW7       30.07S
SELINSGROVE    CLOUDY    51  49  92 CALM      30.07F FOG
FT INDIANTOWN  CLEAR     49  49 100 CALM      30.05F
CAPITAL CITY   MOCLDY    51  49  92 W5        30.05F
HARRISBURG     PTCLDY    54  50  86 CALM      30.04F
YORK           PTCLDY    46  44  93 CALM      30.05F FOG
$$

PAZ038>040-043-044-047-048-054-055-060>062-067>071-170900-
EASTERN PENNSYLVANIA

CITY           SKY/WX    TMP DP  RH WIND       PRES   REMARKS
SCRANTON       CLEAR     45  43  93 E6        30.06S
MOUNT POCONO   CLEAR     41  39  93 CALM      30.05F
ALLENTOWN      CLEAR     49  46  90 CALM      30.05S
QUAKERTOWN*    PTSUNNY   46  45  93 CALM      30.05S
READING        PTCLDY    53  50  89 SW3       30.04F
LANCASTER      CLEAR     54  50  86 CALM      30.04F
COATESVILLE    PTSUNNY   54  50  87 CALM      30.05S
POTTSTOWN      CLOUDY    53  50  89 CALM      30.05F
BLUE BELL      MOCLDY    50  48  93 CALM      30.03F
DOYLESTOWN     CLEAR     51  32  48 NE3       30.03F
WILLOW GROVE   NOT AVBL
NORTH PHILA    CLEAR     53  48  83 N5        30.04F
PHILADELPHIA   CLEAR     57  50  77 NW6       30.03F
$$



USA.gov is the U.S. government's official web portal to all federal, state and local government web resources and services.